This demonstration page uses our WeatherBlox Daily Observations layout. Learn more.

40.92945, -100.16068

Hourly Observations for December 15, 2019

Temp ( °F °C ) Dew Point ( °F °C ) Humidity (%) Winds ( mph kmh ) Pressure ( in mb ) Visibility ( mi km ) Precip ( " mm )
12:15 am 00:15 Cloudy with Light Snow 22 -5.7 20 -6.7 93 93 ESE 9 15 30.05 1018 7 11.26538 0 0
12:35 am 00:35 Cloudy 22 -5.7 19 -7 91 91 SE 8 13 30.04 1017 7 11.26538 0 0
12:55 am 00:55 Cloudy with Light Snow 22 -5.8 20 -6.8 93 93 SE 7 11 30.05 1017 5 8.0467 0 0
1:15 am 01:15 Cloudy with Light Snow 22 -5.8 19 -7.1 91 91 SE 8 13 30.06 1018 3 4.82802 0 0
1:35 am 01:35 Cloudy with Light Snow 22 -5.8 20 -6.9 92 92 ESE 6 9 30.06 1018 4 6.43736 0 0
1:55 am 01:55 Cloudy with Light Snow 21 -6 19 -7.1 92 92 ESE 7 11 30.06 1018 4 6.43736 0 0
2:15 am 02:15 Cloudy with Light Snow 21 -6 19 -7.2 91 91 ESE 6 9 30.06 1018 3 4.82802 0 0
2:35 am 02:35 Cloudy 21 -6.1 19 -7.2 92 92 ESE 7 11 30.06 1018 7 11.26538 0 0
2:55 am 02:55 Cloudy with Mist and Fog 21 -6.1 19 -7.2 92 92 ESE 6 9 30.06 1018 5 8.0467 0 0
3:15 am 03:15 Cloudy 21 -6.1 19 -7.3 91 91 ESE 7 11 30.07 1018 10 16.0934 0 0
3:35 am 03:35 Cloudy with Mist and Fog 21 -6.1 19 -7.1 93 93 SE 5 7 30.07 1018 5 8.0467 0 0
3:55 am 03:55 Cloudy 21 -6.2 19 -7.3 92 92 SE 6 9 30.07 1018 10 16.0934 0 0
4:15 am 04:15 Cloudy 20 -6.5 19 -7.5 93 93 SE 6 9 30.08 1019 10 16.0934 0 0
4:35 am 04:35 Cloudy 20 -6.5 18 -8 89 89 SE 7 11 30.08 1019 10 16.0934 0 0
4:55 am 04:55 Cloudy 20 -6.5 18 -7.8 91 91 SE 6 9 30.08 1019 10 16.0934 0 0
5:15 am 05:15 Cloudy 20 -6.7 18 -8 91 91 ESE 7 11 30.07 1018 10 16.0934 0 0
5:35 am 05:35 Cloudy 20 -6.7 18 -7.8 92 92 SE 7 11 30.06 1018 10 16.0934 0 0
5:55 am 05:55 Cloudy 20 -6.9 18 -8 92 92 ESE 8 13 30.07 1018 10 16.0934 0 0
6:15 am 06:15 Cloudy 19 -7 17 -8.1 92 92 SE 9 15 30.07 1018 10 16.0934 0 0
6:35 am 06:35 Cloudy 20 -6.9 18 -8 92 92 SE 8 13 30.07 1018 10 16.0934 0 0
6:55 am 06:55 Cloudy 20 -6.9 18 -8 92 92 ESE 12 19 30.07 1018 10 16.0934 0 0
7:15 am 07:15 Cloudy 20 -6.9 18 -8 92 92 ESE 12 19 30.07 1018 10 16.0934 0 0
7:35 am 07:35 Cloudy 20 -6.8 18 -8 91 91 SE 10 17 30.07 1018 10 16.0934 0 0
7:55 am 07:55 Cloudy 20 -6.7 18 -7.9 91 91 SE 10 17 30.07 1018 10 16.0934 0 0
8:15 am 08:15 Cloudy 20 -6.7 18 -7.9 91 91 SE 6 9 30.07 1018 10 16.0934 0 0
8:35 am 08:35 Cloudy 20 -6.7 18 -8 91 91 SE 7 11 30.07 1018 10 16.0934 0 0
8:55 am 08:55 Cloudy 20 -6.5 18 -7.8 91 91 SE 9 15 30.07 1018 10 16.0934 0 0
9:15 am 09:15 Cloudy 20 -6.5 18 -7.9 90 90 SE 5 7 30.08 1019 10 16.0934 0 0
9:35 am 09:35 Cloudy 20 -6.5 18 -7.9 90 90 SSE 6 9 30.09 1019 10 16.0934 0 0
9:55 am 09:55 Cloudy 21 -6.2 18 -7.7 89 89 SSE 5 7 30.1 1019 10 16.0934 0 0
10:15 am 10:15 Cloudy 21 -6 18 -7.6 89 89 S 3 6 30.11 1020 10 16.0934 0 0
10:35 am 10:35 Cloudy 21 -5.9 18 -7.6 88 88 SSE 3 6 30.12 1020 10 16.0934 0 0
10:55 am 10:55 Cloudy 22 -5.7 19 -7.5 87 87 Calm 30.11 1020 10 16.0934 0 0
11:15 am 11:15 Cloudy 22 -5.5 19 -7.5 86 86 Calm 30.11 1020 10 16.0934 0 0
11:35 am 11:35 Cloudy 23 -5.2 19 -7.2 86 86 Calm 30.1 1019 10 16.0934 0 0
11:55 am 11:55 Cloudy 23 -5.2 19 -7.3 85 85 Calm 30.09 1019 10 16.0934 0.01 0.254
12:15 pm 12:15 Cloudy 23 -5.1 19 -7.1 86 86 Calm 30.08 1019 10 16.0934 0.01 0.254
12:35 pm 12:35 Cloudy 23 -5 19 -7 86 86 Calm 30.08 1019 10 16.0934 0.02 0.508
12:55 pm 12:55 Cloudy 23 -5 19 -7 86 86 Calm 30.07 1018 10 16.0934 0.02 0.508
1:15 pm 13:15 Cloudy 25 -4.1 20 -6.6 83 83 Calm 30.06 1018 10 16.0934 0 0
1:35 pm 13:35 Cloudy 25 -4 20 -6.4 84 84 Calm 30.06 1018 10 16.0934 0 0
1:55 pm 13:55 Cloudy 25 -4 21 -6.2 85 85 Calm 30.06 1018 10 16.0934 0 0
2:15 pm 14:15 Cloudy 26 -3.5 22 -5.8 84 84 Calm 30.05 1018 10 16.0934 0 0
2:35 pm 14:35 Cloudy 26 -3.2 22 -5.5 84 84 NNW 9 15 30.04 1017 10 16.0934 0 0
2:55 pm 14:55 Cloudy 26 -3.3 22 -5.5 85 85 N 7 11 30.04 1017 10 16.0934 0 0
3:15 pm 15:15 Mostly Cloudy 26 -3.5 21 -6 83 83 NW 6 9 30.05 1018 10 16.0934 0 0
3:35 pm 15:35 Mostly Cloudy 26 -3.3 22 -5.7 84 84 NW 5 7 30.05 1018 10 16.0934 0 0
3:55 pm 15:55 Cloudy 26 -3.1 22 -5.5 84 84 Calm 30.06 1018 10 16.0934 0 0
4:15 pm 16:15 Cloudy 27 -3 22 -5.3 84 84 Calm 30.07 1018 10 16.0934 0 0
4:35 pm 16:35 Cloudy 27 -2.8 23 -5 85 85 WNW 3 6 30.07 1018 10 16.0934 0 0
4:55 pm 16:55 Cloudy 27 -3 23 -5 86 86 Calm 30.08 1019 10 16.0934 0 0
5:15 pm 17:15 Cloudy 27 -3 23 -5 86 86 W 3 6 30.09 1019 10 16.0934 0 0
5:35 pm 17:35 Cloudy 26 -3.1 23 -4.8 88 88 Calm 30.1 1019 10 16.0934 0 0
5:55 pm 17:55 Cloudy 27 -3 24 -4.7 88 88 Calm 30.11 1020 10 16.0934 0 0
6:15 pm 18:15 Cloudy 27 -2.8 23 -4.9 86 86 Calm 30.11 1019 10 16.0934 0 0
6:35 pm 18:35 Cloudy 27 -3 23 -4.8 88 88 Calm 30.11 1020 10 16.0934 0 0
6:55 pm 18:55 Cloudy 27 -3 24 -4.6 89 89 Calm 30.12 1020 10 16.0934 0 0
7:15 pm 19:15 Cloudy 26 -3.1 23 -4.8 88 88 Calm 30.12 1020 10 16.0934 0 0
7:35 pm 19:35 Cloudy 24 -4.2 23 -5.2 93 93 WNW 5 7 30.13 1020 10 16.0934 0 0
7:55 pm 19:55 Cloudy 24 -4.5 22 -5.3 94 94 WNW 5 7 30.14 1021 10 16.0934 0 0
8:15 pm 20:15 Cloudy 22 -5.5 20 -6.9 90 90 Calm 30.15 1021 10 16.0934 0 0
8:35 pm 20:35 Cloudy 22 -5.3 20 -6.4 92 92 Calm 30.15 1021 10 16.0934 0 0
8:55 pm 20:55 Cloudy 21 -5.9 20 -6.8 93 93 WNW 5 7 30.16 1021 10 16.0934 0 0
9:15 pm 21:15 Partly Cloudy 19 -7 18 -7.7 95 95 WNW 8 13 30.17 1022 7 11.26538 0 0
9:35 pm 21:35 Clear 18 -7.7 17 -8.5 94 94 NW 9 15 30.19 1022 7 11.26538 0 0
9:55 pm 21:55 Clear 19 -7.2 18 -7.6 97 97 WNW 7 11 30.19 1022 7 11.26538 0 0
10:15 pm 22:15 Clear with Mist and Fog 18 -7.9 17 -8.6 95 95 NW 6 9 30.2 1023 5 8.0467 0 0
10:35 pm 22:35 Clear with Mist and Fog 18 -7.6 17 -8.1 96 96 Calm 30.2 1023 5 8.0467 0 0
10:55 pm 22:55 Clear 19 -7.3 18 -7.9 96 96 NNW 3 6 30.2 1023 7 11.26538 0 0
11:15 pm 23:15 Partly Cloudy with Mist and Fog 19 -7.5 18 -8 96 96 Calm 30.2 1023 5 8.0467 0 0
11:35 pm 23:35 Mostly Cloudy with Mist and Fog 19 -7.3 18 -7.7 97 97 Calm 30.2 1023 5 8.0467 0 0
11:55 pm 23:55 Cloudy with Mist and Fog 19 -7 19 -7.5 96 96 WNW 5 7 30.21 1023 5 8.0467 0 0

Powered by AerisWeather